Location: Unspecified
(0.0000°N, 0.0000°E)
Time: 05:37:11
(UTC+02:00)

Cosmos 1295 Rocket - Visible Passes

Search period start: 01 September 2016 00:00
Search period end: 11 September 2016 00:00
Orbit: 943 x 995 km, 82.9° (Epoch: 31 August)

Date Brightness Start Highest point End Pass type
(mag) Time Alt. Az. Time Alt. Az. Time Alt. Az.
01 Sep 6.5 05:48:13 10° NE 05:53:09 25° E 05:58:08 10° SE visible
01 Sep 5.4 07:33:06 10° NW 07:38:04 25° W 07:43:07 10° SSW visible
02 Sep 5.2 06:10:31 10° NNE 06:16:31 53° E 06:22:36 10° SSE visible
03 Sep 4.4 06:33:42 10° N 06:39:53 76° W 06:46:11 10° S visible
04 Sep 6.9 05:14:24 10° NE 05:18:23 18° E 05:22:22 10° SE visible
04 Sep 5.0 06:57:41 10° NNW 07:03:16 36° W 07:08:58 10° SSW visible
05 Sep 5.8 05:36:05 10° NNE 05:41:44 37° E 05:47:28 10° SSE visible
05 Sep 5.8 07:22:51 10° NW 07:26:41 17° W 07:30:33 10° SW visible
06 Sep 4.5 05:58:53 10° N 06:05:07 78° E 06:11:26 10° S visible
07 Sep 7.2 04:41:28 10° ENE 04:43:36 12° E 04:45:45 10° ESE visible
07 Sep 4.6 06:22:30 10° NNW 06:28:30 51° W 06:34:36 10° SSW visible
08 Sep 6.3 05:01:52 10° NNE 05:06:58 27° E 05:12:07 10° SE visible
08 Sep 5.4 06:46:59 10° NW 06:51:53 24° W 06:56:51 10° SW visible
09 Sep 6.3 05:24:15 10° N 05:34:40 20° SSE 05:36:30 10° SSE visible
09 Sep6.707:19:22SW07:19:22SW07:09:08NWvisible
10 Sep 6.7 05:59:56 10° S 05:59:56 10° S 06:00:02 10° S visible
